[ ตารางข้อมูล ] [ Min-Max ] [ วันนี้4 ] [ วันนี้2 ] [ เทียบ3วัน A ] [ เทียบ4วัน B ]   

วันนี้2   [ ◀ ช่วงเก่ากว่า ] [ ช่วงที่ 170 ] [ ช่วงใหม่กว่า ▶ ] [ ล่าสุด ]    [ 3 ชั่วโมง ] [ 6 ชั่วโมง ] [ 12 ชั่วโมง ] [ 24 ชั่วโมง ]   วันนี้2

อุณภูมิตู้ Knockdown4529  ราย 3 ชั่วโมง  ที่วัดได้ ในช่วงวันเวลา 11/04/2026 (19:12) ถึง 11/04/2026 (22:12) 
ความชื้นในตู้ Knockdown4529  ราย 3 ชั่วโมง  ที่วัดได้ ในช่วงวันเวลา 11/04/2026 (19:12) ถึง 11/04/2026 (22:12) 

 
DS18B20SHTC3 
IDDate d/m/Y & Timedata1
สูง
data2
ต่ำ
data3
นอก
temp
pcb
hum
pcb
Time
 10975  11/04/2026 22:12:12  30.9  31.1  30.0  31.0  71.5  22:12 
 10974  11/04/2026 22:07:29  31.0  31.1  30.0  31.0  71.3  22:07 
 10973  11/04/2026 22:02:47  31.0  31.1  29.9  30.9  71.4  22:02 
 10972  11/04/2026 21:58:06  31.0  31.1  29.9  31.0  71.4  21:58 
 10971  11/04/2026 21:53:24  31.1  31.1  30.0  31.0  71.4  21:53 
 10970  11/04/2026 21:48:41  31.1  31.1  30.0  30.9  71.2  21:48 
 10969  11/04/2026 21:44:00  31.1  31.1  30.2  31.1  71.4  21:44 
 10968  11/04/2026 21:39:18  31.1  31.2  30.1  31.1  71.2  21:39 
 10967  11/04/2026 21:34:36  31.1  31.2  30.1  31.1  71.4  21:34 
 10966  11/04/2026 21:29:52  31.1  31.2  30.2  31.1  71.4  21:29 
 10965  11/04/2026 21:25:10  31.1  31.2  30.2  31.1  71.4  21:25 
 10964  11/04/2026 21:20:28  31.1  31.2  30.2  31.0  71.5  21:20 
 10963  11/04/2026 21:15:47  31.2  31.2  30.2  31.2  71.4  21:15 
 10962  11/04/2026 21:11:04  31.2  31.2  30.4  31.1  71.4  21:11 
 10961  11/04/2026 21:06:22  31.2  31.2  30.3  31.4  71.3  21:06 
 10960  11/04/2026 21:01:39  31.2  31.3  30.3  31.2  71.5  21:01 
 10959  11/04/2026 20:56:57  31.2  31.3  30.4  31.3  71.5  20:56 
 10958  11/04/2026 20:52:16  31.2  31.3  30.4  31.1  71.5  20:52 
 10957  11/04/2026 20:47:34  31.2  31.3  30.4  31.4  71.5  20:47 
 10956  11/04/2026 20:42:52  31.3  31.3  30.4  31.4  71.5  20:42 
 10955  11/04/2026 20:38:10  31.3  31.4  30.4  31.2  71.5  20:38 
 10954  11/04/2026 20:33:28  31.3  31.4  30.4  31.5  71.5  20:33 
 10953  11/04/2026 20:28:45  31.3  31.4  30.4  31.4  71.6  20:28 
 10952  11/04/2026 20:24:04  31.4  31.4  30.5  31.4  71.7  20:24 

Data every 5 minute.


ใช้เวลาประมวลผล 0.00186 วินาที